Blair, NE

11:19 AM CST on December 14, 2017 (GMT -0600)
Blair Municipal

Weather History for KBTA - January, 2014

Change the Weather History Date:

Monday, January 13, 2014

  Actual Average (KOMA) Record (KOMA)
Temperature  
Mean Temperature 37 °F -  
Max Temperature 46 °F 32 °F 63 °F (1996)
Min Temperature 28 °F 10 °F -22 °F (1916)
Degree Days  
Heating Degree Days 28    
Moisture  
Dew Point 25 °F    
Average Humidity 60    
Maximum Humidity 80    
Minimum Humidity 37    
Precipitation  
Precipitation 0.00 in - - ()
Sea Level Pressure  
Sea Level Pressure 29.74 in    
Wind  
Wind Speed 10 mph (WSW)    
Max Wind Speed 18 mph    
Max Gust Speed 31 mph    
Visibility 10 miles    
Events Rain    
Averages and records for this station are not official NWS values.
T = Trace of Precipitation, MM = Missing Value Source: NWS Daily Summary

Daily Weather History Graph

Daily Weather History Graph

Search for Another Location

Airport or City:

Trip Planner

Search our weather history database for the weather conditions in past years. The results will help you decide how hot, cold, wet, or windy it might be!

Date:

Astronomy

Jan. 13, 2014 Rise Set
Actual Time 7:49 AM CST 5:17 PM CST
Civil Twilight 7:18 AM CST 5:48 PM CST
Nautical Twilight 6:44 AM CST 6:22 PM CST
Astronomical Twilight 6:10 AM CST 6:55 PM CST
Moon 3:33 PM CST (1/13) 5:38 AM CST (1/13)
Length of Visible Light 10h 29m
Length of Day
9h 28m
Waxing Gibbous, 95% of the Moon is Illuminated
Jan 13
Waxing Gibbous
Jan 15
Full
Jan 23
Last Quarter
Jan 30
New
Feb 6
First Quarter

Hourly Weather History & Observations

Time (CST) Temp. Windchill Dew Point Humidity Pressure Visibility Wind Dir Wind Speed Gust Speed Precip Events Conditions
12:15 AM 44.1 °F 39.5 °F 30.0 °F 58% 29.65 in 10.0 mi West 8.1 mph - N/A   Overcast
12:35 AM 43.3 °F 39.9 °F 29.7 °F 59% 29.64 in 10.0 mi WNW 5.8 mph - N/A   Overcast
12:55 AM 42.8 °F 38.0 °F 29.3 °F 59% 29.65 in 10.0 mi WNW 8.1 mph - N/A   Overcast
1:15 AM 42.4 °F 36.5 °F 28.6 °F 58% 29.66 in 10.0 mi NW 10.4 mph - N/A   Mostly Cloudy
1:35 AM 42.1 °F 37.1 °F 28.2 °F 58% 29.67 in 10.0 mi WNW 8.1 mph - N/A   Mostly Cloudy
1:55 AM 41.5 °F 36.4 °F 27.7 °F 58% 29.67 in 10.0 mi WNW 8.1 mph - N/A   Overcast
2:15 AM 41.2 °F 35.0 °F 27.5 °F 58% 29.69 in 10.0 mi WNW 10.4 mph - N/A   Overcast
2:35 AM 40.3 °F 35.5 °F 27.3 °F 60% 29.69 in 10.0 mi WNW 6.9 mph - N/A   Overcast
2:55 AM 38.7 °F 33.6 °F 27.0 °F 63% 29.69 in 10.0 mi WNW 6.9 mph - N/A   Mostly Cloudy
3:15 AM 38.5 °F 32.1 °F 26.6 °F 62% 29.70 in 10.0 mi WNW 9.2 mph - N/A   Mostly Cloudy
3:35 AM 36.7 °F 31.2 °F 26.2 °F 66% 29.71 in 10.0 mi WNW 6.9 mph - N/A   Scattered Clouds
3:55 AM 36.5 °F 29.2 °F 27.0 °F 68% 29.71 in 10.0 mi NW 10.4 mph - N/A   Clear
4:15 AM 37.4 °F 30.3 °F 28.2 °F 69% 29.72 in 10.0 mi NW 10.4 mph 16.1 mph N/A   Clear
4:35 AM 37.4 °F 29.8 °F 28.6 °F 70% 29.73 in 10.0 mi WNW 11.5 mph 18.4 mph N/A   Clear
4:55 AM 36.5 °F 27.8 °F 28.8 °F 74% 29.74 in 10.0 mi NW 13.8 mph 20.7 mph N/A   Clear
5:15 AM 35.6 °F 27.1 °F 28.6 °F 76% 29.75 in 10.0 mi NW 12.7 mph - N/A   Clear
5:35 AM 34.9 °F 26.6 °F 28.6 °F 78% 29.76 in 10.0 mi WNW 11.5 mph - N/A   Clear
5:55 AM 34.2 °F 23.3 °F 28.6 °F 80% 29.77 in 10.0 mi WNW 18.4 mph 25.3 mph N/A   Scattered Clouds
6:15 AM 34.5 °F 24.1 °F 27.5 °F 76% 29.77 in 10.0 mi NW 17.3 mph 31.1 mph N/A   Scattered Clouds
6:35 AM 33.6 °F 22.6 °F 26.1 °F 74% 29.77 in 10.0 mi NW 18.4 mph 26.5 mph N/A   Clear
6:55 AM 32.2 °F 21.8 °F 23.5 °F 70% 29.78 in 10.0 mi NW 15.0 mph 24.2 mph N/A   Clear
7:15 AM 31.3 °F 21.1 °F 23.0 °F 71% 29.78 in 10.0 mi NW 13.8 mph 18.4 mph N/A   Clear
7:35 AM 30.7 °F 20.9 °F 22.6 °F 72% 29.78 in 10.0 mi NW 12.7 mph 19.6 mph N/A   Clear
7:55 AM 30.0 °F 20.5 °F 22.1 °F 72% 29.80 in 10.0 mi NW 11.5 mph - N/A   Clear
8:15 AM 29.3 °F 21.5 °F 21.9 °F 74% 29.81 in 10.0 mi WNW 8.1 mph - N/A   Clear
8:35 AM 28.8 °F 21.7 °F 22.1 °F 76% 29.83 in 10.0 mi WNW 6.9 mph - N/A   Clear
8:55 AM 29.5 °F 21.1 °F 22.3 °F 75% 29.83 in 10.0 mi WNW 9.2 mph - N/A   Clear
9:15 AM 30.4 °F 22.9 °F 22.8 °F 73% 29.84 in 10.0 mi WNW 8.1 mph - N/A   Clear
9:35 AM 31.6 °F 23.7 °F 23.4 °F 71% 29.84 in 10.0 mi NW 9.2 mph - N/A   Clear
9:55 AM 32.5 °F 26.2 °F 24.3 °F 72% 29.84 in 10.0 mi WNW 6.9 mph - N/A   Clear
10:15 AM 33.8 °F 26.4 °F 24.6 °F 69% 29.85 in 10.0 mi NW 9.2 mph - N/A   Clear
10:35 AM 34.9 °F 27.1 °F 24.6 °F 66% 29.84 in 10.0 mi NW 10.4 mph - N/A   Clear
10:55 AM 36.0 °F 29.6 °F 25.0 °F 64% 29.84 in 10.0 mi WNW 8.1 mph - N/A   Clear
11:15 AM 37.4 °F 31.4 °F 25.3 °F 62% 29.83 in 10.0 mi West 8.1 mph - N/A   Clear
11:35 AM 37.8 °F 31.3 °F 25.5 °F 61% 29.83 in 10.0 mi WSW 9.2 mph - N/A   Clear
11:55 AM 38.3 °F 30.9 °F 25.3 °F 60% 29.81 in 10.0 mi WSW 11.5 mph - N/A   Clear
12:15 PM 39.2 °F 32.5 °F 24.6 °F 56% 29.81 in 10.0 mi West 10.4 mph - N/A   Clear
12:35 PM 40.5 °F 34.6 °F 22.1 °F 48% 29.80 in 10.0 mi West 9.2 mph - N/A   Clear
12:55 PM 42.3 °F 36.3 °F 22.8 °F 46% 29.78 in 10.0 mi WSW 10.4 mph 18.4 mph N/A   Clear
1:15 PM 42.3 °F 35.5 °F 21.6 °F 44% 29.78 in 10.0 mi WSW 12.7 mph 16.1 mph N/A   Clear
1:35 PM 43.2 °F 36.2 °F 20.3 °F 40% 29.75 in 10.0 mi WSW 13.8 mph - N/A   Clear
1:55 PM 43.7 °F 37.7 °F 21.0 °F 41% 29.75 in 10.0 mi SW 11.5 mph - N/A   Clear
2:15 PM 44.4 °F 40.0 °F 20.7 °F 39% 29.75 in 10.0 mi SW 8.1 mph - N/A   Clear
2:35 PM 45.1 °F 39.9 °F 20.7 °F 38% 29.75 in 10.0 mi SSW 10.4 mph 17.3 mph N/A   Clear
2:55 PM 45.9 °F 40.4 °F 21.0 °F 37% 29.74 in 10.0 mi SW 11.5 mph - N/A   Clear
3:15 PM 46.9 °F - 22.5 °F 38% 29.74 in 10.0 mi SSW 11.5 mph - N/A   Clear
3:35 PM 46.0 °F 41.0 °F 23.4 °F 41% 29.74 in 10.0 mi SSW 10.4 mph - N/A   Clear
3:55 PM 46.6 °F - 23.9 °F 41% 29.74 in 10.0 mi SSW 13.8 mph 18.4 mph N/A   Scattered Clouds
4:15 PM 44.8 °F 39.4 °F 23.9 °F 44% 29.74 in 10.0 mi SSW 10.4 mph - N/A   Scattered Clouds
4:35 PM 43.7 °F 37.7 °F 24.8 °F 47% 29.73 in 10.0 mi South 11.5 mph - N/A   Mostly Cloudy
4:55 PM 41.0 °F 35.2 °F 24.3 °F 51% 29.74 in 10.0 mi South 9.2 mph - N/A   Scattered Clouds
5:15 PM 39.0 °F 33.4 °F 23.5 °F 54% 29.73 in 10.0 mi South 8.1 mph - N/A   Clear
5:35 PM 38.5 °F 32.7 °F 24.3 °F 57% 29.72 in 10.0 mi South 8.1 mph - N/A   Scattered Clouds
5:55 PM 37.6 °F 31.0 °F 24.1 °F 58% 29.71 in 10.0 mi South 9.2 mph - N/A   Scattered Clouds
6:15 PM 36.1 °F 29.3 °F 23.9 °F 61% 29.71 in 10.0 mi South 9.2 mph - N/A   Clear
6:35 PM 37.4 °F 29.8 °F 24.6 °F 60% 29.70 in 10.0 mi South 11.5 mph - N/A   Clear
6:55 PM 36.5 °F 29.2 °F 24.4 °F 62% 29.69 in 10.0 mi South 10.4 mph - N/A   Clear
7:15 PM 36.1 °F 29.9 °F 24.4 °F 63% 29.69 in 10.0 mi South 8.1 mph - N/A   Clear
7:35 PM 35.4 °F 29.0 °F 24.4 °F 64% 29.69 in 10.0 mi South 8.1 mph - N/A   Clear
7:55 PM 34.9 °F 27.7 °F 24.6 °F 66% 29.69 in 10.0 mi South 9.2 mph - N/A   Clear
8:15 PM 35.2 °F 29.5 °F 24.6 °F 65% 29.68 in 10.0 mi South 6.9 mph - N/A   Clear
8:35 PM 34.9 °F 29.0 °F 23.9 °F 64% 29.68 in 10.0 mi SSW 6.9 mph - N/A   Clear
8:55 PM 36.0 °F 29.6 °F 24.1 °F 62% 29.68 in 10.0 mi SSW 8.1 mph - N/A   Clear
9:15 PM 36.5 °F 29.2 °F 23.9 °F 60% 29.68 in 10.0 mi SSW 10.4 mph - N/A   Clear
9:35 PM 37.4 °F 30.8 °F 23.9 °F 58% 29.67 in 10.0 mi SW 9.2 mph - N/A   Clear
9:55 PM 37.6 °F 30.5 °F 23.9 °F 58% 29.67 in 10.0 mi SW 10.4 mph - N/A   Scattered Clouds
10:15 PM 37.8 °F 31.8 °F 23.9 °F 57% 29.67 in 10.0 mi SW 8.1 mph - N/A   Scattered Clouds
10:35 PM 38.3 °F 31.9 °F 24.6 °F 58% 29.67 in 10.0 mi WSW 9.2 mph - N/A   Scattered Clouds
10:55 PM 40.6 °F 34.8 °F 25.3 °F 54% 29.67 in 10.0 mi WSW 9.2 mph 16.1 mph N/A   Mostly Cloudy
11:15 PM 39.7 °F 34.9 °F 25.2 °F 56% 29.68 in 10.0 mi WSW 6.9 mph - N/A   Overcast
11:35 PM 40.1 °F 36.1 °F 29.8 °F 67% 29.66 in 10.0 mi WSW 5.8 mph - N/A Rain Light Rain
11:55 PM 39.2 °F 37.0 °F 29.3 °F 68% 29.65 in 10.0 mi WSW 3.5 mph - N/A   Mostly Cloudy